Location: Rounton
(54.4000°N, 1.3500°W)
Time: 22:38:37
(UTC+00:00)

deb Explorer IX - Pass Details

Date: 17 December 2021
Orbit: 544 x 1082 km, 38.8° (Epoch: 27 January)

Event Time Altitude Azimuth Distance (km) Brightness Sun altitude
Exits shadow 06:29:28 - 235° (SW) 3,754 ? -14.9°
Rises 06:29:31 0° 235° (SW) 3,735 ? -14.9°
Reaches altitude 10° 06:33:12 10° 217° (SW) 2,698 ? -14.4°
Maximum altitude 06:37:19 18° 178° (S) 2,073 ? -13.8°
Drops below altitude 10° 06:41:07 10° 137° (SE) 2,459 ? -13.3°
Sets 06:44:16 0° 119° (ESE) 3,281 ? -12.9°
